| time (UTC) | temp F | wind direction | speed MPH | gust MPH | rain 1hr in | rain 24hr in | rain mn in | humidity % | barometer mb |
| 20260905183015 | 98 | 94 | 1.0 | 4.0 | 0.00 | 0.00 | 0.00 | 46 | 1012.0 |
| 20260905181556 | 98 | 34 | 0.0 | 4.0 | 0.00 | 0.00 | 0.00 | 46 | 1012.2 |
| 20260905180050 | 98 | 150 | 1.0 | 2.0 | 0.00 | 0.00 | 0.00 | 47 | 1012.3 |
| 20260905174526 | 97 | 201 | 0.0 | 3.0 | 0.00 | 0.00 | 0.00 | 48 | 1012.5 |
| 20260905173005 | 96 | 76 | 1.0 | 5.0 | 0.00 | 0.00 | 0.00 | 50 | 1012.7 |
| 20260905171547 | 97 | 111 | 0.0 | 3.0 | 0.00 | 0.00 | 0.00 | 54 | 1013.0 |
| 20260905170022 | 95 | 105 | 1.0 | 3.0 | 0.00 | 0.00 | 0.00 | 55 | 1013.1 |
| 20260905164508 | 95 | 113 | 1.0 | 3.0 | 0.00 | 0.00 | 0.00 | 59 | 1013.3 |
| 20260905163044 | 94 | 298 | 0.0 | 3.0 | 0.00 | 0.00 | 0.00 | 58 | 1013.4 |
| 20260905161523 | 93 | 116 | 1.0 | 3.0 | 0.00 | 0.00 | 0.00 | 61 | 1013.5 |
| 20260905160009 | 93 | 180 | 1.0 | 4.0 | 0.00 | 0.00 | 0.00 | 61 | 1013.5 |
| 20260905154543 | 92 | 325 | 0.0 | 3.0 | 0.00 | 0.00 | 0.00 | 58 | 1013.6 |
| 20260905153033 | 91 | 42 | 1.0 | 2.0 | 0.00 | 0.00 | 0.00 | 61 | 1013.6 |
| 20260905151511 | 90 | 338 | 0.0 | 2.0 | 0.00 | 0.00 | 0.00 | 66 | 1013.6 |
| 20260905150044 | 89 | 331 | 1.0 | 3.0 | 0.00 | 0.00 | 0.00 | 70 | 1013.5 |
| 20260905144525 | 87 | 312 | 0.0 | 2.0 | 0.00 | 0.00 | 0.00 | 71 | 1013.3 |
| 20260905143004 | 86 | 345 | 1.0 | 2.0 | 0.00 | 0.00 | 0.00 | 72 | 1013.4 |
| 20260905141552 | 85 | 320 | 0.0 | 2.0 | 0.00 | 0.00 | 0.00 | 79 | 1013.4 |
| 20260905140019 | 84 | 298 | 0.0 | 2.0 | 0.00 | 0.00 | 0.00 | 79 | 1013.4 |
| 20260905134557 | 83 | 5 | 0.0 | 1.0 | 0.00 | 0.00 | 0.00 | 82 | 1013.5 |
| 20260905133037 | 81 | 342 | 0.0 | 1.0 | 0.00 | 0.00 | 0.00 | 84 | 1013.2 |
| 20260905131516 | 79 | 118 | 0.0 | 0.0 | 0.00 | 0.00 | 0.00 | 88 | 1013.1 |
| 20260905130054 | 77 | 118 | 0.0 | 0.0 | 0.00 | 0.00 | 0.00 | 90 | 1013.2 |
| 20260905124537 | 76 | 118 | 0.0 | 0.0 | 0.00 | 0.00 | 0.00 | 92 | 1013.1 |
| 20260905123013 | 75 | 118 | 0.0 | 0.0 | 0.00 | 0.00 | 0.00 | 92 | 1013.1 |
| 20260905121550 | 75 | 118 | 0.0 | 0.0 | 0.00 | 0.00 | 0.00 | 91 | 1012.9 |
| 20260905120035 | 75 | 118 | 0.0 | 0.0 | 0.00 | 0.00 | 0.00 | 91 | 1012.8 |
| 20260905114514 | 75 | 118 | 0.0 | 0.0 | 0.00 | 0.00 | 0.00 | 91 | 1012.8 |
| 20260905113052 | 75 | 118 | 0.0 | 0.0 | 0.00 | 0.00 | 0.00 | 91 | 1012.8 |
| 20260905111542 | 75 | 118 | 0.0 | 0.0 | 0.00 | 0.00 | 0.00 | 90 | 1012.6 |
| 20260905110020 | 75 | 118 | 0.0 | 0.0 | 0.00 | 0.00 | 0.00 | 90 | 1012.5 |
| 20260905104600 | 75 | 118 | 0.0 | 0.0 | 0.00 | 0.00 | 0.00 | 90 | 1012.4 |
| 20260905104502 | 75 | 118 | 0.0 | 0.0 | 0.00 | 0.00 | 0.00 | 90 | 1012.4 |
| 20260905103049 | 75 | 118 | 0.0 | 0.0 | 0.00 | 0.00 | 0.00 | 90 | 1012.5 |
| 20260905101522 | 75 | 118 | 0.0 | 0.0 | 0.00 | 0.00 | 0.00 | 90 | 1012.5 |
| 20260905100009 | 75 | 118 | 0.0 | 0.0 | 0.00 | 0.00 | 0.00 | 90 | 1012.6 |
| 20260905094543 | 75 | 118 | 0.0 | 0.0 | 0.00 | 0.00 | 0.00 | 90 | 1012.4 |
| 20260905093032 | 76 | 118 | 0.0 | 0.0 | 0.00 | 0.00 | 0.00 | 90 | 1012.5 |
| 20260905091512 | 76 | 118 | 0.0 | 0.0 | 0.00 | 0.00 | 0.00 | 90 | 1012.4 |
| 20260905090109 | 76 | 118 | 0.0 | 0.0 | 0.00 | 0.00 | 0.00 | 90 | 1012.3 |
| 20260905084532 | 76 | 118 | 0.0 | 0.0 | 0.00 | 0.00 | 0.00 | 89 | 1012.4 |
| 20260905083012 | 76 | 118 | 0.0 | 0.0 | 0.00 | 0.00 | 0.00 | 89 | 1012.3 |
| 20260905081602 | 76 | 118 | 0.0 | 1.0 | 0.00 | 0.00 | 0.00 | 89 | 1012.2 |
| 20260905080043 | 77 | 118 | 0.0 | 0.0 | 0.00 | 0.00 | 0.00 | 88 | 1012.2 |
| 20260905074514 | 77 | 118 | 0.0 | 0.0 | 0.00 | 0.00 | 0.00 | 87 | 1012.2 |
| 20260905073100 | 77 | 118 | 0.0 | 0.0 | 0.00 | 0.00 | 0.00 | 87 | 1012.1 |
| 20260905071534 | 78 | 118 | 0.0 | 0.0 | 0.00 | 0.00 | 0.00 | 86 | 1012.2 |
| 20260905070017 | 78 | 118 | 0.0 | 0.0 | 0.00 | 0.00 | 0.00 | 85 | 1012.3 |
| 20260905064554 | 78 | 118 | 0.0 | 0.0 | 0.00 | 0.00 | 0.00 | 84 | 1012.3 |
| 20260905063034 | 78 | 118 | 0.0 | 0.0 | 0.00 | 0.00 | 0.00 | 84 | 1012.2 |
| 20260905061515 | 79 | 118 | 0.0 | 0.0 | 0.00 | 0.00 | 0.00 | 84 | 1012.3 |
| 20260905060058 | 79 | 118 | 0.0 | 0.0 | 0.00 | 0.00 | 0.00 | 82 | 1012.3 |
| 20260905054546 | 80 | 118 | 0.0 | 1.0 | 0.00 | 0.00 | 0.00 | 82 | 1012.4 |
| 20260905053036 | 80 | 118 | 0.0 | 0.0 | 0.00 | 0.00 | 0.00 | 81 | 1012.3 |
| 20260905051526 | 80 | 118 | 0.0 | 0.0 | 0.00 | 0.00 | 0.00 | 81 | 1012.3 |
| 20260905050052 | 81 | 118 | 0.0 | 0.0 | 0.00 | 0.00 | 0.00 | 80 | 1012.3 |
| 20260905044540 | 81 | 118 | 0.0 | 0.0 | 0.00 | 0.00 | 0.00 | 79 | 1012.1 |
| 20260905043014 | 82 | 118 | 0.0 | 0.0 | 0.00 | 0.00 | 0.00 | 77 | 1012.0 |
| 20260905041558 | 82 | 118 | 0.0 | 0.0 | 0.00 | 0.00 | 0.00 | 75 | 1012.1 |
| 20260905040037 | 82 | 119 | 0.0 | 0.0 | 0.00 | 0.00 | 0.00 | 75 | 1012.0 |
| 20260905034522 | 83 | 119 | 0.0 | 0.0 | 0.00 | 0.00 | 0.00 | 75 | 1012.2 |
| 20260905033005 | 83 | 119 | 0.0 | 0.0 | 0.00 | 0.00 | 0.00 | 74 | 1012.2 |
| 20260905031609 | 83 | 119 | 0.0 | 0.0 | 0.00 | 0.00 | 0.00 | 72 | 1012.2 |
| 20260905030047 | 84 | 119 | 0.0 | 0.0 | 0.00 | 0.00 | 0.00 | 72 | 1012.2 |
| 20260905024538 | 84 | 119 | 0.0 | 0.0 | 0.00 | 0.00 | 0.00 | 71 | 1012.1 |
| 20260905023020 | 85 | 119 | 0.0 | 0.0 | 0.00 | 0.00 | 0.00 | 71 | 1012.0 |
| 20260905021601 | 85 | 119 | 0.0 | 0.0 | 0.00 | 0.00 | 0.00 | 70 | 1011.9 |
| 20260905021502 | 85 | 119 | 0.0 | 0.0 | 0.00 | 0.00 | 0.00 | 69 | 1012.0 |
| 20260905020044 | 85 | 119 | 0.0 | 0.0 | 0.00 | 0.00 | 0.00 | 68 | 1011.8 |
| 20260905014528 | 86 | 119 | 0.0 | 1.0 | 0.00 | 0.00 | 0.00 | 68 | 1011.5 |
| 20260905013014 | 87 | 119 | 0.0 | 1.0 | 0.00 | 0.00 | 0.00 | 66 | 1011.5 |
| 20260905011559 | 87 | 119 | 0.0 | 1.0 | 0.00 | 0.00 | 0.00 | 64 | 1011.4 |
| 20260905010034 | 87 | 119 | 0.0 | 0.0 | 0.00 | 0.00 | 0.00 | 64 | 1011.4 |
| 20260905004516 | 88 | 119 | 0.0 | 1.0 | 0.00 | 0.00 | 0.00 | 62 | 1011.4 |
| 20260905003059 | 89 | 119 | 0.0 | 1.0 | 0.00 | 0.00 | 0.00 | 61 | 1011.3 |
| 20260905003001 | 90 | 119 | 0.0 | 1.0 | 0.00 | 0.00 | 0.00 | 61 | 1011.4 |
| 20260905001551 | 91 | 119 | 0.0 | 2.0 | 0.00 | 0.00 | 0.00 | 59 | 1011.3 |
| 20260905000032 | 92 | 98 | 0.0 | 3.0 | 0.00 | 0.00 | 0.00 | 55 | 1011.3 |
| 20260904234511 | 93 | 79 | 1.0 | 4.0 | 0.00 | 0.00 | 0.00 | 52 | 1011.1 |
| 20260904233059 | 94 | 84 | 0.0 | 3.0 | 0.00 | 0.00 | 0.00 | 52 | 1010.9 |
| 20260904233001 | 94 | 115 | 0.0 | 3.0 | 0.00 | 0.00 | 0.00 | 52 | 1010.9 |
| 20260904231547 | 94 | 93 | 0.0 | 4.0 | 0.00 | 0.00 | 0.00 | 50 | 1010.9 |
| 20260904230043 | 94 | 98 | 1.0 | 3.0 | 0.00 | 0.00 | 0.00 | 50 | 1010.9 |
| 20260904224555 | 95 | 85 | 0.0 | 4.0 | 0.00 | 0.00 | 0.00 | 51 | 1010.8 |
| 20260904223048 | 95 | 140 | 2.0 | 4.0 | 0.00 | 0.00 | 0.00 | 50 | 1011.0 |
| 20260904221516 | 95 | 62 | 0.0 | 4.0 | 0.00 | 0.00 | 0.00 | 47 | 1010.9 |
| 20260904220115 | 96 | 102 | 2.0 | 6.0 | 0.00 | 0.00 | 0.00 | 45 | 1011.1 |
| 20260904214537 | 96 | 105 | 1.0 | 8.0 | 0.00 | 0.00 | 0.00 | 44 | 1011.1 |
| 20260904213013 | 96 | 97 | 1.0 | 9.0 | 0.00 | 0.00 | 0.00 | 46 | 1011.3 |
| 20260904211552 | 96 | 78 | 1.0 | 6.0 | 0.00 | 0.00 | 0.00 | 48 | 1011.4 |
| 20260904210043 | 96 | 90 | 2.0 | 5.0 | 0.00 | 0.00 | 0.00 | 50 | 1011.6 |
| 20260904204516 | 96 | 107 | 3.0 | 8.0 | 0.00 | 0.00 | 0.00 | 49 | 1012.0 |
| 20260904203054 | 96 | 88 | 2.0 | 5.0 | 0.00 | 0.00 | 0.00 | 50 | 1012.0 |
| 20260904201545 | 96 | 49 | 2.0 | 5.0 | 0.00 | 0.00 | 0.00 | 52 | 1012.2 |
| 20260904200039 | 96 | 122 | 2.0 | 4.0 | 0.00 | 0.00 | 0.00 | 52 | 1012.3 |
| 20260904194556 | 96 | 159 | 1.0 | 8.0 | 0.00 | 0.00 | 0.00 | 54 | 1012.8 |
| 20260904193039 | 96 | 71 | 1.0 | 5.0 | 0.00 | 0.00 | 0.00 | 54 | 1013.0 |
| 20260904191521 | 96 | 170 | 2.0 | 6.0 | 0.00 | 0.00 | 0.00 | 49 | 1013.1 |
| 20260904190106 | 97 | 227 | 1.0 | 3.0 | 0.00 | 0.00 | 0.00 | 49 | 1013.2 |
| 20260904190007 | 97 | 273 | 1.0 | 3.0 | 0.00 | 0.00 | 0.00 | 49 | 1013.2 |
| 20260904184538 | 95 | 102 | 1.0 | 8.0 | 0.00 | 0.00 | 0.00 | 49 | 1013.6 |